Location: Bear Trap Landing
(45.2437°N, 67.7928°W)
Time: 02:59:32
(UTC+00:00)

X-37B - Pass Details

Date: 11 March 2021
Orbit: 380 x 394 km, 45.0° (Epoch: 07 April)

Event Time Altitude Azimuth Distance (km) Brightness Sun altitude
Rises 23:50:39 0° 219° (SW) 2,262 4.9 -14.6°
Reaches altitude 10° 23:52:58 10° 204° (SSW) 1,414 3.6 -15.0°
Enters shadow 23:55:21 22° 156° (SSE) 908 2.1 -15.4°
